Weather History for Easton, MD

Change the Weather History Date:

Saturday, February 2, 2013

  Actual Average Record
Temperature  
Mean Temperature 23 °F -  
Max Temperature 32 °F 45 °F 66 °F (1967)
Min Temperature 16 °F 28 °F 0 °F (1961)
Degree Days  
Heating Degree Days 42    
Moisture  
Dew Point 14 °F    
Average Humidity 71    
Maximum Humidity 100    
Minimum Humidity 44    
Precipitation  
Precipitation 0.01 in - - ()
Sea Level Pressure  
Sea Level Pressure 30.31 in    
Wind  
Wind Speed 8 mph (West)    
Max Wind Speed 14 mph    
Max Gust Speed 20 mph    
Visibility 9 miles    
Events Snow    
Averages and records for this station are not official NWS values.
T = Trace of Precipitation, MM = Missing Value Source: NWS Daily Summary

Daily Weather History Graph

Daily Weather History Graph

Search for Another Location

Airport:

Trip Planner

Search our weather history database for the weather conditions in past years. The results will help you decide how hot, cold, wet, or windy it might be!

Date:

Astronomy

Feb. 02, 2013 Rise Set
Actual Time 7:09 AM EST 5:27 PM EST
Civil Twilight 6:41 AM EST 5:55 PM EST
Nautical Twilight 6:09 AM EST 6:27 PM EST
Astronomical Twilight 5:38 AM EST 6:58 PM EST
Moon No Moon Rise 10:22 AM EST (2/2)
Length of Visible Light 11h 14m
Length of Day
10h 18m
Waning Gibbous, 60% of the Moon is Illuminated
Feb 2
Waning Gibbous
Feb 3
Last Quarter
Feb 10
New
Feb 17
First Quarter
Feb 25
Full

Hourly Weather History & Observations

Time (EST) Temp. Windchill Dew Point Humidity Pressure Visibility Wind Dir Wind Speed Gust Speed Precip Events Conditions
12:07 AM 21.2 °F 8.9 °F 8.4 °F 58% 30.41 in 10.0 mi NW 12.7 mph 19.6 mph N/A   Clear
12:28 AM 21.2 °F 8.9 °F 8.2 °F 57% 30.40 in 10.0 mi NW 12.7 mph - N/A   Clear
12:49 AM 21.0 °F 8.6 °F 7.9 °F 57% 30.41 in 10.0 mi NW 12.7 mph 18.4 mph N/A   Clear
1:11 AM 20.7 °F 7.6 °F 8.1 °F 58% 30.41 in 10.0 mi NNW 13.8 mph 18.4 mph N/A   Clear
1:32 AM 20.7 °F 10.2 °F 8.2 °F 59% 30.42 in 10.0 mi NW 9.2 mph - N/A   Clear
1:53 AM 20.3 °F 10.6 °F 8.6 °F 61% 30.42 in 10.0 mi NW 8.1 mph - N/A   Clear
2:15 AM 19.9 °F 7.3 °F 8.6 °F 61% 30.41 in 10.0 mi NNW 12.7 mph 16.1 mph N/A   Clear
2:36 AM 19.0 °F 9.0 °F 9.1 °F 65% 30.41 in 10.0 mi NW 8.1 mph - N/A   Clear
2:57 AM 18.9 °F 10.8 °F 9.1 °F 66% 30.41 in 10.0 mi NNW 5.8 mph - N/A   Clear
3:19 AM 18.0 °F - 9.9 °F 71% 30.40 in 10.0 mi Calm Calm - N/A   Clear
3:40 AM 18.1 °F 8.9 °F 9.3 °F 68% 30.40 in 10.0 mi NNW 6.9 mph - N/A   Clear
4:01 AM 17.2 °F 11.9 °F 10.0 °F 73% 30.39 in 10.0 mi NNW 3.5 mph - N/A   Clear
4:23 AM 17.4 °F - 10.2 °F 73% 30.39 in 10.0 mi Calm Calm - N/A   Clear
4:44 AM 17.6 °F 10.7 °F 10.4 °F 73% 30.39 in 10.0 mi NNW 4.6 mph - N/A   Clear
5:05 AM 17.4 °F 12.1 °F 9.9 °F 72% 30.39 in 10.0 mi NNW 3.5 mph - N/A   Clear
5:27 AM 17.4 °F - 10.9 °F 76% 30.39 in 10.0 mi Calm Calm - N/A   Clear
5:48 AM 17.6 °F - 9.7 °F 71% 30.40 in 10.0 mi Calm Calm - N/A   Clear
5:50 AM 17.6 °F 12.3 °F 10.4 °F 73% 30.40 in 10.0 mi WNW 3.5 mph - N/A   Clear
6:09 AM 17.4 °F - 10.4 °F 74% 30.40 in 10.0 mi Calm Calm - N/A   Clear
6:31 AM 16.5 °F - 10.6 °F 77% 30.40 in 10.0 mi Calm Calm - N/A   Clear
6:40 AM 17.4 °F - 10.2 °F 73% 30.40 in 10.0 mi Calm Calm - N/A   Clear
6:47 AM 17.6 °F 12.3 °F 10.4 °F 73% 30.40 in 10.0 mi WNW 3.5 mph - N/A   Scattered Clouds
7:49 AM 19.4 °F 14.3 °F 10.4 °F 68% 30.41 in 10.0 mi WNW 3.5 mph - N/A   Scattered Clouds
8:52 AM 24.8 °F 19.1 °F 10.4 °F 54% 30.41 in 10.0 mi NW 4.6 mph - N/A   Scattered Clouds
9:52 AM 26.6 °F 21.2 °F 10.4 °F 51% 30.38 in 10.0 mi West 4.6 mph - N/A   Clear
10:47 AM 30.2 °F 25.4 °F 10.4 °F 44% 30.37 in 10.0 mi WNW 4.6 mph - N/A   Clear
11:52 AM 28.4 °F 18.5 °F 10.4 °F 47% 30.33 in 10.0 mi SSW 11.5 mph 17.3 mph N/A   Clear
12:45 PM 30.2 °F 21.9 °F 12.2 °F 47% 30.29 in 10.0 mi SW 9.2 mph - N/A   Mostly Cloudy
1:51 PM 30.2 °F 20.2 °F 12.2 °F 47% 30.25 in 10.0 mi SSW 12.7 mph - N/A   Overcast
2:52 PM 30.2 °F 21.3 °F 15.8 °F 55% 30.22 in 10.0 mi SW 10.4 mph - N/A   Mostly Cloudy
3:52 PM 30.2 °F 21.3 °F 15.8 °F 55% 30.20 in 10.0 mi South 10.4 mph - N/A   Mostly Cloudy
5:55 PM 30.2 °F 20.8 °F 17.6 °F 60% 30.15 in 10.0 mi SSW 11.5 mph 18.4 mph N/A   Scattered Clouds
6:50 PM 28.4 °F 19.7 °F 24.8 °F 86% 30.15 in 2.5 mi SW 9.2 mph - N/A Snow Light Snow
7:50 PM 26.6 °F 19.1 °F 26.6 °F 100% 30.15 in 1.8 mi SW 6.9 mph - N/A Snow Light Snow
8:50 PM 28.4 °F 22.2 °F 28.4 °F 100% 30.13 in 7.0 mi North 5.8 mph - N/A Snow Light Snow
9:46 PM 28.0 °F 22.8 °F 28.0 °F 100% 30.11 in 4.0 mi South 4.6 mph - N/A Snow Light Snow
10:07 PM 27.5 °F 22.2 °F 27.5 °F 100% 30.09 in 5.0 mi SE 4.6 mph - N/A Snow Light Snow
10:28 PM 27.3 °F 23.4 °F 27.3 °F 100% 30.08 in 10.0 mi SE 3.5 mph - N/A   Clear
10:50 PM 27.5 °F - 27.5 °F 100% 30.08 in 10.0 mi Calm Calm - N/A   Scattered Clouds
11:11 PM 27.5 °F 23.6 °F 27.5 °F 100% 30.08 in 10.0 mi SSE 3.5 mph - N/A   Scattered Clouds
11:32 PM 28.4 °F 24.6 °F 28.4 °F 100% 30.07 in 10.0 mi SE 3.5 mph - N/A   Clear
11:54 PM 28.0 °F 24.2 °F 28.0 °F 100% 30.06 in 10.0 mi SE 3.5 mph - N/A   Clear